Location: Stilling
(56.0622°N, 9.9882°E)
Time: 23:27:29
(UTC+00:00)

Cosmos 2333 Rocket - Pass Details

Date: 13 July 2020
Orbit: 837 x 864 km, 70.8° (Epoch: 03 August)

Event Time Altitude Azimuth Distance (km) Brightness Sun altitude
Rises 20:47:11 0° 229° (SW) 3,410 5.3 -5.3°
Reaches altitude 10° 20:49:40 10° 234° (SW) 2,482 4.7 -5.5°
Maximum altitude 20:55:17 57° 313° (NW) 1,011 3.1 -6.0°
Drops below altitude 10° 21:00:58 10° 32° (NNE) 2,511 5.0 -6.4°
Sets 21:03:31 0° 37° (NE) 3,454 5.7 -6.6°
